Location: C�mpuri de-Sus
(45.9500°N, 22.5500°E)
Time: 05:23:02
(UTC+00:00)

Cosmos 1980 Rocket - Pass Details

Date: 24 October 2021
Orbit: 828 x 851 km, 71.0° (Epoch: 04 December)

Event Time Altitude Azimuth Distance (km) Brightness Sun altitude
Rises 16:55:02 0° 242° (WSW) 3,390 6.5 -15.7°
Reaches altitude 10° 16:57:52 10° 255° (WSW) 2,463 5.9 -16.2°
Maximum altitude 17:02:34 26° 311° (NW) 1,603 4.2 -17.0°
Drops below altitude 10° 17:07:19 10° 8° (N) 2,485 4.6 -17.8°
Sets 17:10:12 0° 21° (NNE) 3,426 5.2 -18.3°
